This is the latest recevied weather packets stored in our database for station/object KK7MLS-13. If no packets are shown the sender has not sent any weather packets the latest 10 day(s).
| Time | Temp. | Humidity | Pressure | Rain* | Wind** | Luminosity | Snow |
|---|---|---|---|---|---|---|---|
| 1788548908 | 19.44° C | 65% | 1013.8 hPa | 0 mm | - | 298 W/m² | - |
| 1788548604 | 18.89° C | 69% | 1013.8 hPa | 0 mm | - | 294 W/m² | - |
| 1788548300 | 17.78° C | 71% | 1013.7 hPa | 0 mm | - | 391 W/m² | - |
| 1788547995 | 17.22° C | 73% | 1013.6 hPa | 0 mm | - | 219 W/m² | - |
| 1788547695 | 17.22° C | 70% | 1013.7 hPa | 0 mm | - | 217 W/m² | - |
| 1788547390 | 17.22° C | 70% | 1013.5 hPa | 0 mm | - | 263 W/m² | - |
| 1788547086 | 17.22° C | 75% | 1013.4 hPa | 0 mm | - | 211 W/m² | - |
| 1788546786 | 17.22° C | 76% | 1013.5 hPa | 0 mm | - | 195 W/m² | - |
| 1788546481 | 17.22° C | 78% | 1013.5 hPa | 0 mm | - | 175 W/m² | - |
| 1788546176 | 16.67° C | 79% | 1013.5 hPa | 0 mm | - | 252 W/m² | - |
| 1788545871 | 16.67° C | 80% | 1013.4 hPa | 0 mm | - | 278 W/m² | - |
| 1788545571 | 16.67° C | 78% | 1013.4 hPa | 0 mm | - | 296 W/m² | - |
| 1788545267 | 16.11° C | 79% | 1013.5 hPa | 0 mm | - | 191 W/m² | - |
| 1788544962 | 16.11° C | 81% | 1013.3 hPa | 0 mm | - | 199 W/m² | - |
| 1788544661 | 16.11° C | 81% | 1013.3 hPa | 0 mm | - | 192 W/m² | - |
| 1788544359 | 16.11° C | 82% | 1013.5 hPa | 0 mm | - | 210 W/m² | - |
| 1788544055 | 15.56° C | 83% | 1013.3 hPa | 0 mm | - | 205 W/m² | - |
| 1788543751 | 15.56° C | 84% | 1013.5 hPa | 0 mm | - | 215 W/m² | - |
| 1788543446 | 15.56° C | 83% | 1013.2 hPa | 0 mm | - | 192 W/m² | - |
| 1788543146 | 15.56° C | 84% | 1013.3 hPa | 0 mm | - | 152 W/m² | - |
| 1788542843 | 15.56° C | 83% | 1013.1 hPa | 0 mm | - | 187 W/m² | - |
| 1788542542 | 16.11° C | 83% | 1013.1 hPa | 0 mm | - | 195 W/m² | - |
| 1788542237 | 16.11° C | 85% | 1013.2 hPa | 0 mm | - | 213 W/m² | - |
| 1788541932 | 15.56° C | 87% | 1013 hPa | 0 mm | - | 328 W/m² | - |
| 1788541628 | 15° C | 88% | 1013.2 hPa | 0 mm | - | 283 W/m² | - |
* Rain latest hour (hover to see other rain measurements)
** Current wind speed in m/s (hover to see current wind gust speed)